Regional Weather Roundup
Issued by NWS Jackson, KY

Home | Current Version | Previous Version | Graphics & Text | Print | Product List | Glossary On
Versions: 1 2 3 4 5 6 7 8 9 10 11 12 13 14 15 16 17 18 19 20 21 22 23 24 25 26 27 28 29 30 31 32 33 34 35 36 37 38 39 40 41 42 43 44 45 46 47 48 49 50
000
ASUS43 KJKL 182105
RWRJKL

EAST KENTUCKY HOURLY WEATHER ROUNDUP
NATIONAL WEATHER SERVICE JACKSON KY
500 PM EDT THU SEP 18 2014

NOTE: "FAIR" INDICATES FEW OR NO CLOUDS BELOW 12,000 FEET WITH
NO SIGNIFICANT WEATHER AND/OR OBSTRUCTIONS TO VISIBILITY.

* THESE REPORTS ARE NOT UNDER NWS QUALITY CONTROL AND MAY NOT
  REPORT WEATHER SUCH AS PRECIPITATION AND FOG.

KYZ079-080-083-085-087-088-110-112-115-119-120-182200
...EASTERN KENTUCKY...

CITY           SKY/WX    TMP DP  RH WIND       PRES   REMARKS
JACKSON        MOSUNNY   70  51  51 VRB3      30.05S
LONDON         MOSUNNY   74  52  46 VRB3      30.03S
MONTICELLO*    PTSUNNY   76  57  51 VRB7      30.03F
MIDDLESBORO*   MOSUNNY   74  55  49 NE3       30.01S
HARLAN APT*    CLEAR     72  45  37 MISG      30.03S
BLACK MTN*       N/A     63  52  67 N3          N/A
PIKEVILLE APT* MOSUNNY   70  55  60 NE6       30.05R
BIG SANDY*     MOCLDY    71  55  58 N6        30.05S
MOREHEAD APT*  PTCLDY    72  52  49 NE9       30.06F
$$

KYZ035-036-041-042-044-050-067-078-099-182200
...CENTRAL KENTUCKY...

CITY           SKY/WX    TMP DP  RH WIND       PRES   REMARKS
MT STERLING*   MOSUNNY   72  52  49 E6        30.05F
FLEMING/MASON* PTSUNNY   71  49  45 NE8       30.06F
DANVILLE*      SUNNY     72  52  49 NE6       30.04F
RICHMOND*      MOSUNNY   72  52  49 NE5       30.03F
LEXINGTON      MOSUNNY   74  53  48 NE9       30.04F
FRANKFORT      SUNNY     73  50  44 E8        30.03F
$$

KYZ091>093-OHZ055-061-077-WVZ005-015-034-035-042-182200
...SOUTHERN OHIO/WEST VIRGINIA...

CITY           SKY/WX    TMP DP  RH WIND       PRES   REMARKS
COVINGTON      MOSUNNY   72  46  39 E12       30.06F
COLUMBUS       MOSUNNY   72  46  39 NE5       30.08R
DAYTON         MOSUNNY   73  47  39 E8        30.09F
WILMINGTON     SUNNY     70  43  37 NE6       30.08S
HUNTINGTON     MOSUNNY   71  51  49 E7        30.04S
CHARLESTON     PTSUNNY   73  53  49 CALM      30.04S
PINEVILLE*     PTSUNNY   70  63  76 MISG      30.09S
BECKLEY        PTSUNNY   67  49  52 NE5       30.07R
BLUEFIELD      MOSUNNY   72  49  44 W5        30.07S
$$

VAZ002-007-008-TNZ017-027-036-066-071-182200
...SOUTHWEST VIRGINIA/EAST TENNESSEE...

CITY           SKY/WX    TMP DP  RH WIND       PRES   REMARKS
WISE*          CLOUDY    70  48  46 N5        30.09R
JONESVILLE*    CLEAR     75  50  41 CALM      30.03S
ABINGDON*      CLOUDY    71  55  57 CALM      30.04S
BRISTOL        PTSUNNY   76  53  44 N8        30.01S
KNOXVILLE      CLOUDY    78  53  41 NE8       29.97S
OAK RIDGE      PTSUNNY   78  55  44 VRB5      30.00S
CROSSVILLE     CLOUDY    75  53  46 NE5       30.02S
NASHVILLE      CLOUDY    76  56  49 N6        29.99S
$$

...KEY TO REMARKS...
VSB - VISIBILITY IN MILES
WCI - WIND CHILL INDEX
HX  - HEAT INDEX

$$


USA.gov is the U.S. government's official web portal to all federal, state and local government web resources and services.